Regional Weather Roundup
Issued by NWS

Home | Current Version | Previous Version | Text Only | Print | Product List | Glossary On
Versions: 1 2 3 4 5 6 7 8 9 10 11 12 13 14 15 16 17 18 19 20 21 22 23 24 25 26 27 28 29 30 31 32 33 34 35 36 37 38 39 40 41 42 43 44 45 46 47 48 49 50
000
ASUS43 KDMX 280207
RWRIA

WEATHER ROUNDUP FOR IOWA
NATIONAL WEATHER SERVICE DES MOINES IA
900 PM CDT THU AUG 27 2015

NOTE: "FAIR" INDICATES FEW OR NO CLOUDS BELOW 12,000 FEET WITH NO
SIGNIFICANT WEATHER AND/OR OBSTRUCTIONS TO VISIBILITY.

* - THESE STATIONS ARE NOT NWS STATIONS...THUS NOT UNDER NWS
QUALITY CONTROL.  THEY ALSO DO NOT REPORT WEATHER SUCH
AS PRECIPITATION OR FOG.

IAZ001>003-012>014-020>022-031>034-043>046-280300-
   NORTHWEST IOWA

CITY           SKY/WX    TMP DP  RH WIND       PRES   REMARKS
CARROLL *      PTCLDY    64  64 100 E8        29.98S
CHEROKEE *     RAIN      66  66 100 NE10      30.00S
DENISON *      CLEAR     68  64  88 E8        29.94S
LE MARS *      LGT RAIN  68  68 100 E10G18    29.97R
ORANGE CITY *  LGT RAIN  66  64  94 E10G20    30.00R
SHELDON *      CLOUDY    64  63  94 SE10G16   29.98R
SIOUX CITY     LGT RAIN  73  67  81 NE18G25   29.94R
SPENCER        CLOUDY    66  60  81 SE12      30.02F HAZE
STORM LAKE *   PTCLDY    66  63  88 E10       30.01S
$$

IAZ055>058-069>071-079>083-090>094-280300-
   SOUTHWEST IOWA

CITY           SKY/WX    TMP DP  RH WIND       PRES   REMARKS
ATLANTIC *     CLEAR     70  64  83 SE7       29.96R
AUDUBON *      CLEAR     66  63  88 E7        29.98S
CLARINDA *     CLEAR     70  64  83 SE8       29.97R
COUNCIL BLFS * CLEAR     72  68  88 SE10G16   29.93S
CRESTON *      CLEAR     66  63  88 SE12      29.99F
HARLAN  *      PTCLDY    70  70 100 SE6       29.98S
LAMONI         MOCLDY    68  62  81 E6        30.00R
RED OAK *      CLEAR     70  66  88 SE8G15    29.94S
SHENANDOAH *   CLEAR     72  66  83 SE9       29.95R
$$

IAZ047>049-059>061-072>074-084-280300-
   CENTRAL IOWA

CITY           SKY/WX    TMP DP  RH WIND       PRES   REMARKS
AMES           PTCLDY    65  61  87 SE7       30.02R
ANKENY *       CLEAR     66  63  88 SE7       30.01S
CHARITON *     PTCLDY    66  63  88 SE7       30.02R
DES MOINES     MOCLDY    70  60  70 SE13      30.00F
GRINNELL*      CLEAR     64  61  88 E7        30.05F
KNOXVILLE *    CLEAR     66  61  82 E7        30.03R
MARSHALLTOWN   PTCLDY    65  61  87 SE9       30.03S
PELLA *        CLEAR     66  63  88 SE3       30.05R
PERRY *          N/A     64  63  94 SE6       30.00R
$$

IAZ004>006-015-016-023>025-035-036-280300-
   NORTH CENTRAL IOWA

CITY           SKY/WX    TMP DP  RH WIND       PRES   REMARKS
ALGONA *       CLEAR     66  61  82 CALM      30.05R
CLARION *      CLEAR     64  61  88 SE9       30.03R
ESTHERVILLE    CLOUDY    64  61  90 S12       30.01F
FORT DODGE *   CLOUDY    64  59  82 E8        30.02S
MASON CITY     MOCLDY    64  60  87 E6        30.07R
FOREST CITY *  CLEAR     63  59  88 SE3       30.04R
IOWA FALLS *     N/A     64  61  88 E5        30.05R
$$

IAZ007>011-017>019-026>030-037>042-050>054-066-280300-
   NORTHEAST IOWA

CITY           SKY/WX    TMP DP  RH WIND       PRES   REMARKS
CEDAR RAPIDS   PTCLDY    62  61  96 SE6       30.06F
CHARLES CITY * MOCLDY    63  63 100 E7        30.07R
CLINTON *      MOCLDY    61  57  88 E5        30.13F
DECORAH *      CLOUDY    64  61  88 SE6       30.06F
DUBUQUE        CLOUDY    64  59  83 SE7       30.10F
MONTICELLO *   CLEAR     66  59  77 E8        30.04F
OELWEIN *      CLOUDY    64  61  88 E5        30.08S
WATERLOO       MOCLDY    66  59  78 E7        30.05R
$$

IAZ064-065-067-068-078-280300-
   EAST CENTRAL IOWA

CITY           SKY/WX    TMP DP  RH WIND       PRES   REMARKS
DAVENPORT      PTCLDY    60  57  89 E3        30.10F
IOWA CITY      PTCLDY    66  59  78 SE7       30.08R
MT. PLEASANT * PTCLDY    66  59  77 E3        30.08R
MUSCATINE *    CLEAR     66  59  77 E7        30.08S
QUAD CITIES    CLEAR     63  59  87 CALM      30.09F
$$

IAZ062-063-075>077-085>089-095>099-280300-
   SOUTHEAST IOWA

CITY           SKY/WX    TMP DP  RH WIND       PRES   REMARKS
BURLINGTON     CLEAR     67  61  81 E6        30.08S
FAIRFIELD *    CLEAR     63  59  88 E7        30.07R
FORT MADISON * CLEAR     64  59  82 SE3       30.08S
KEOKUK *       CLEAR     66  61  82 SE7       30.07R
OSKALOOSA *      N/A     63  61  94 E6        30.06R
CENTERVILLE *  CLEAR     64  63  94 SE8       30.04F
OTTUMWA        CLEAR     66  62  87 E8        30.04R
WASHINGTON *     N/A    N/A N/A N/A MISG        N/A
$$

ABBREVIATIONS USED IN REMARKS
   TC - TEMPERATURES IN CELSIUS
  WCI - WIND CHILL INDEX
   HX - HEAT INDEX
  VSB - VISIBILITY
$$



USA.gov is the U.S. government's official web portal to all federal, state and local government web resources and services.